TimeEST,TemperatureF,Dew PointF,Humidity,Sea Level PressureIn,VisibilityMPH,Wind Direction,Wind SpeedMPH,Gust SpeedMPH,PrecipitationIn,Events,Conditions,WindDirDegrees,DateUTC
12:55 AM,36.9,35.6,95,30.30,10.0,Calm,Calm,-,N/A,,Clear,0,2013-02-10 05:55:00
1:55 AM,35.8,35.2,98,30.31,10.0,Calm,Calm,-,N/A,,Scattered Clouds,0,2013-02-10 06:55:00
2:55 AM,35.4,34.9,98,30.31,10.0,Calm,Calm,-,N/A,,Mostly Cloudy,0,2013-02-10 07:55:00
3:55 AM,36.7,36.5,99,30.30,10.0,Calm,Calm,-,N/A,,Overcast,0,2013-02-10 08:55:00
4:55 AM,37.4,37.2,99,30.30,10.0,Calm,Calm,-,N/A,,Clear,0,2013-02-10 09:55:00
5:55 AM,39.2,38.3,97,30.30,10.0,Calm,Calm,-,N/A,,Clear,0,2013-02-10 10:55:00
6:55 AM,41.7,41.0,97,30.32,10.0,NE,3.5,-,N/A,,Mostly Cloudy,40,2013-02-10 11:55:00
7:55 AM,44.6,43.0,94,30.33,10.0,NE,3.5,-,N/A,,Partly Cloudy,50,2013-02-10 12:55:00
8:55 AM,51.3,46.0,82,30.33,10.0,ENE,5.8,-,N/A,,Partly Cloudy,60,2013-02-10 13:55:00
9:55 AM,57.9,48.2,70,30.33,10.0,East,6.9,-,N/A,,Clear,80,2013-02-10 14:55:00
10:55 AM,63.5,50.9,63,30.33,10.0,East,9.2,17.3,N/A,,Partly Cloudy,90,2013-02-10 15:55:00
11:55 AM,68.7,51.3,54,30.32,10.0,ESE,16.1,-,N/A,,Overcast,110,2013-02-10 16:55:00
12:55 PM,69.4,51.6,53,30.30,10.0,SE,13.8,-,N/A,,Mostly Cloudy,130,2013-02-10 17:55:00
1:55 PM,69.8,50.5,50,30.27,10.0,SE,13.8,18.4,N/A,,Mostly Cloudy,130,2013-02-10 18:55:00
2:55 PM,69.3,51.4,53,30.25,10.0,SSE,11.5,18.4,N/A,,Scattered Clouds,150,2013-02-10 19:55:00
3:55 PM,68.7,52.5,56,30.23,10.0,SE,12.7,24.2,N/A,,Mostly Cloudy,140,2013-02-10 20:55:00
4:55 PM,67.8,53.4,60,30.23,10.0,ESE,12.7,-,N/A,,Mostly Cloudy,120,2013-02-10 21:55:00
5:55 PM,65.8,54.1,66,30.21,10.0,ESE,11.5,-,N/A,,Clear,120,2013-02-10 22:55:00
6:55 PM,63.0,54.3,73,30.19,10.0,SE,8.1,-,N/A,,Clear,130,2013-02-10 23:55:00
7:55 PM,62.6,54.7,75,30.18,10.0,SE,8.1,-,N/A,,Mostly Cloudy,140,2013-02-11 00:55:00
8:55 PM,62.2,54.5,76,30.17,10.0,SE,6.9,-,N/A,,Mostly Cloudy,130,2013-02-11 01:55:00
9:55 PM,62.8,55.8,78,30.18,10.0,SSE,4.6,-,N/A,,Mostly Cloudy,150,2013-02-11 02:55:00
10:55 PM,64.2,56.7,76,30.18,10.0,South,6.9,-,N/A,,Mostly Cloudy,170,2013-02-11 03:55:00
11:55 PM,64.2,57.2,78,30.18,10.0,SE,5.8,-,N/A,,Mostly Cloudy,140,2013-02-11 04:55:00